GFSGL_prec_pwat_273.txt.gz
Precipitable_Water
0.27 0.28 0.29 0.31 0.33 0.34 0.35 0.37 0.38 0.38 0.38 0.42 0.47 0.48 0.46 0.42 0.40 0.36 0.34 0.34 0.34 0.36 0.38 0.41 0.46 0.51 0.50 0.52 0.50 0.46 0.43 0.43 0.39 0.45 0.52 0.54 0.53 0.55 0.58 0.63 0.68 0.69 0.67
0.27 0.27 0.28 0.30 0.32 0.32 0.34 0.36 0.37 0.37 0.38 0.39 0.44 0.50 0.49 0.48 0.45 0.40 0.38 0.37 0.34 0.32 0.34 0.36 0.40 0.45 0.48 0.50 0.49 0.46 0.44 0.44 0.40 0.36 0.43 0.46 0.47 0.51 0.52 0.56 0.59 0.63 0.65
0.27 0.26 0.27 0.28 0.30 0.31 0.33 0.35 0.36 0.35 0.35 0.37 0.39 0.45 0.49 0.48 0.47 0.44 0.41 0.38 0.36 0.35 0.32 0.36 0.38 0.43 0.46 0.49 0.47 0.47 0.46 0.45 0.42 0.39 0.38 0.43 0.45 0.47 0.46 0.50 0.51 0.55 0.61
0.26 0.26 0.25 0.26 0.29 0.31 0.33 0.34 0.34 0.35 0.34 0.34 0.36 0.40 0.47 0.50 0.49 0.45 0.43 0.42 0.39 0.37 0.36 0.38 0.41 0.40 0.43 0.49 0.49 0.50 0.52 0.46 0.43 0.38 0.37 0.36 0.38 0.42 0.42 0.41 0.43 0.49 0.49
0.25 0.25 0.25 0.25 0.27 0.30 0.31 0.32 0.33 0.34 0.34 0.34 0.34 0.36 0.41 0.47 0.50 0.45 0.43 0.44 0.43 0.42 0.40 0.40 0.39 0.41 0.42 0.45 0.49 0.49 0.48 0.46 0.44 0.40 0.38 0.38 0.37 0.35 0.33 0.37 0.36 0.41 0.45
0.24 0.24 0.25 0.25 0.25 0.26 0.28 0.29 0.31 0.32 0.32 0.32 0.31 0.33 0.34 0.41 0.52 0.46 0.42 0.42 0.43 0.43 0.41 0.42 0.45 0.42 0.41 0.41 0.44 0.46 0.49 0.46 0.41 0.42 0.40 0.38 0.39 0.41 0.41 0.37 0.34 0.33 0.31
0.25 0.25 0.25 0.24 0.23 0.24 0.25 0.26 0.27 0.30 0.31 0.31 0.30 0.29 0.28 0.36 0.45 0.44 0.41 0.39 0.39 0.42 0.43 0.43 0.45 0.49 0.48 0.41 0.38 0.38 0.41 0.46 0.48 0.43 0.40 0.41 0.41 0.43 0.43 0.39 0.36 0.35 0.34
0.26 0.26 0.27 0.25 0.22 0.23 0.23 0.23 0.26 0.28 0.28 0.29 0.29 0.29 0.29 0.33 0.40 0.42 0.38 0.36 0.36 0.37 0.41 0.44 0.47 0.48 0.52 0.48 0.44 0.43 0.41 0.38 0.37 0.38 0.39 0.41 0.44 0.48 0.46 0.42 0.41 0.39 0.39
0.27 0.27 0.28 0.26 0.23 0.22 0.22 0.22 0.25 0.25 0.26 0.27 0.28 0.30 0.30 0.32 0.37 0.37 0.36 0.35 0.34 0.34 0.37 0.39 0.45 0.48 0.51 0.53 0.47 0.43 0.42 0.42 0.45 0.44 0.41 0.40 0.41 0.42 0.44 0.44 0.38 0.37 0.35
0.27 0.29 0.29 0.27 0.25 0.23 0.23 0.23 0.25 0.26 0.26 0.27 0.27 0.29 0.31 0.31 0.35 0.39 0.37 0.33 0.32 0.31 0.34 0.36 0.39 0.44 0.47 0.51 0.49 0.47 0.43 0.43 0.43 0.42 0.42 0.41 0.39 0.37 0.38 0.34 0.34 0.35 0.37
0.29 0.29 0.28 0.27 0.26 0.26 0.26 0.26 0.27 0.27 0.27 0.28 0.29 0.30 0.31 0.31 0.32 0.37 0.37 0.33 0.31 0.27 0.29 0.33 0.36 0.41 0.41 0.44 0.49 0.48 0.48 0.48 0.45 0.43 0.42 0.43 0.43 0.43 0.43 0.42 0.39 0.33 0.27
0.29 0.29 0.27 0.27 0.28 0.27 0.27 0.28 0.28 0.28 0.27 0.27 0.29 0.30 0.32 0.34 0.34 0.34 0.34 0.34 0.34 0.27 0.27 0.31 0.34 0.38 0.39 0.39 0.42 0.47 0.48 0.48 0.47 0.45 0.43 0.42 0.41 0.41 0.43 0.45 0.46 0.45 0.44
0.31 0.29 0.28 0.28 0.29 0.29 0.28 0.28 0.28 0.29 0.28 0.28 0.29 0.30 0.31 0.36 0.37 0.36 0.34 0.33 0.31 0.30 0.31 0.31 0.32 0.33 0.34 0.36 0.38 0.40 0.43 0.45 0.45 0.44 0.43 0.44 0.45 0.46 0.47 0.46 0.46 0.46 0.47
0.33 0.31 0.30 0.29 0.30 0.30 0.30 0.30 0.30 0.29 0.29 0.30 0.31 0.31 0.33 0.35 0.39 0.39 0.37 0.35 0.34 0.31 0.30 0.31 0.31 0.30 0.32 0.33 0.33 0.36 0.38 0.40 0.42 0.43 0.44 0.45 0.47 0.47 0.45 0.46 0.44 0.45 0.44
0.34 0.34 0.33 0.32 0.31 0.30 0.31 0.31 0.32 0.34 0.35 0.34 0.35 0.36 0.34 0.34 0.39 0.41 0.39 0.37 0.37 0.35 0.32 0.30 0.29 0.29 0.27 0.27 0.28 0.31 0.32 0.36 0.37 0.38 0.41 0.43 0.44 0.46 0.45 0.46 0.45 0.44 0.41
0.30 0.33 0.34 0.34 0.33 0.33 0.32 0.31 0.36 0.37 0.38 0.39 0.40 0.40 0.39 0.41 0.42 0.41 0.40 0.38 0.38 0.37 0.32 0.31 0.30 0.30 0.28 0.28 0.27 0.27 0.29 0.30 0.32 0.36 0.37 0.38 0.39 0.42 0.44 0.46 0.46 0.44 0.42
0.27 0.31 0.34 0.35 0.34 0.34 0.34 0.34 0.32 0.35 0.38 0.39 0.40 0.41 0.41 0.41 0.41 0.40 0.40 0.38 0.37 0.36 0.32 0.32 0.32 0.34 0.33 0.30 0.28 0.27 0.27 0.29 0.30 0.31 0.31 0.34 0.37 0.39 0.39 0.39 0.40 0.40 0.40
0.28 0.30 0.32 0.33 0.33 0.32 0.33 0.34 0.35 0.34 0.33 0.35 0.40 0.41 0.41 0.42 0.41 0.40 0.39 0.37 0.33 0.34 0.33 0.32 0.32 0.34 0.38 0.35 0.32 0.29 0.27 0.27 0.29 0.29 0.29 0.30 0.31 0.32 0.32 0.32 0.33 0.33 0.33
0.28 0.29 0.30 0.32 0.33 0.32 0.33 0.32 0.32 0.32 0.31 0.31 0.32 0.34 0.37 0.37 0.36 0.36 0.36 0.32 0.31 0.31 0.32 0.32 0.33 0.33 0.35 0.40 0.37 0.34 0.31 0.28 0.28 0.29 0.30 0.30 0.31 0.32 0.31 0.32 0.32 0.32 0.32
0.31 0.31 0.32 0.31 0.31 0.30 0.29 0.29 0.29 0.29 0.29 0.29 0.29 0.30 0.34 0.32 0.30 0.30 0.31 0.30 0.28 0.28 0.29 0.29 0.31 0.32 0.33 0.35 0.43 0.40 0.34 0.31 0.28 0.28 0.28 0.29 0.29 0.30 0.30 0.29 0.30 0.29 0.29
0.35 0.33 0.33 0.32 0.31 0.30 0.29 0.28 0.29 0.28 0.28 0.29 0.30 0.33 0.36 0.32 0.30 0.30 0.30 0.29 0.28 0.28 0.28 0.28 0.29 0.31 0.32 0.32 0.35 0.44 0.41 0.35 0.32 0.29 0.28 0.28 0.28 0.27 0.29 0.29 0.29 0.29 0.29
0.38 0.36 0.34 0.32 0.32 0.31 0.31 0.30 0.29 0.29 0.30 0.30 0.32 0.34 0.35 0.34 0.33 0.32 0.31 0.30 0.30 0.30 0.30 0.30 0.29 0.30 0.31 0.32 0.33 0.37 0.43 0.41 0.36 0.31 0.29 0.28 0.28 0.27 0.28 0.28 0.27 0.27 0.28
0.39 0.38 0.36 0.34 0.34 0.34 0.32 0.32 0.31 0.32 0.32 0.33 0.34 0.34 0.35 0.36 0.36 0.34 0.32 0.31 0.31 0.30 0.31 0.31 0.30 0.29 0.31 0.33 0.34 0.36 0.41 0.44 0.41 0.36 0.30 0.28 0.27 0.26 0.27 0.26 0.26 0.26 0.26
0.40 0.39 0.38 0.37 0.36 0.34 0.34 0.34 0.35 0.35 0.36 0.36 0.37 0.37 0.37 0.37 0.34 0.32 0.31 0.31 0.31 0.31 0.32 0.31 0.30 0.29 0.30 0.31 0.33 0.37 0.41 0.47 0.45 0.38 0.32 0.28 0.26 0.26 0.26 0.25 0.24 0.25 0.26
0.41 0.40 0.39 0.38 0.37 0.36 0.37 0.37 0.38 0.39 0.39 0.39 0.39 0.37 0.34 0.33 0.32 0.32 0.31 0.31 0.30 0.30 0.30 0.30 0.30 0.30 0.30 0.31 0.32 0.35 0.42 0.50 0.46 0.40 0.34 0.29 0.27 0.25 0.25 0.24 0.23 0.24 0.25
0.42 0.41 0.40 0.40 0.40 0.40 0.39 0.38 0.37 0.38 0.36 0.35 0.33 0.32 0.32 0.33 0.33 0.31 0.30 0.30 0.30 0.30 0.31 0.31 0.31 0.31 0.31 0.32 0.33 0.36 0.41 0.49 0.45 0.41 0.35 0.32 0.29 0.26 0.24 0.23 0.23 0.23 0.24

GFSGL_prec_pwat_276.txt.gz
Precipitable_Water
0.25 0.26 0.26 0.28 0.30 0.31 0.32 0.33 0.33 0.33 0.34 0.35 0.38 0.44 0.45 0.46 0.47 0.43 0.40 0.38 0.34 0.32 0.34 0.37 0.39 0.46 0.49 0.52 0.53 0.47 0.42 0.47 0.44 0.47 0.53 0.56 0.55 0.57 0.59 0.64 0.67 0.68 0.65
0.25 0.25 0.25 0.27 0.29 0.30 0.30 0.32 0.34 0.33 0.34 0.34 0.36 0.39 0.45 0.46 0.47 0.44 0.42 0.41 0.37 0.35 0.34 0.37 0.39 0.45 0.48 0.51 0.51 0.49 0.47 0.44 0.39 0.36 0.44 0.49 0.51 0.54 0.55 0.56 0.59 0.64 0.67
0.24 0.24 0.24 0.25 0.27 0.28 0.30 0.32 0.33 0.33 0.33 0.33 0.33 0.36 0.39 0.46 0.45 0.44 0.43 0.43 0.42 0.40 0.39 0.41 0.39 0.41 0.44 0.48 0.49 0.48 0.49 0.48 0.44 0.39 0.38 0.43 0.44 0.48 0.46 0.49 0.52 0.55 0.59
0.24 0.23 0.23 0.23 0.25 0.27 0.29 0.31 0.32 0.33 0.32 0.31 0.32 0.33 0.37 0.41 0.47 0.43 0.40 0.41 0.42 0.43 0.41 0.42 0.40 0.42 0.40 0.45 0.47 0.48 0.49 0.48 0.45 0.40 0.38 0.36 0.38 0.42 0.42 0.40 0.39 0.45 0.46
0.23 0.23 0.23 0.24 0.25 0.26 0.27 0.28 0.30 0.31 0.32 0.32 0.30 0.31 0.32 0.38 0.47 0.44 0.40 0.37 0.38 0.41 0.42 0.45 0.46 0.46 0.45 0.45 0.43 0.45 0.46 0.44 0.44 0.41 0.39 0.39 0.38 0.37 0.34 0.36 0.34 0.36 0.39
0.24 0.24 0.25 0.26 0.25 0.25 0.26 0.27 0.28 0.30 0.31 0.31 0.31 0.29 0.27 0.34 0.43 0.46 0.42 0.36 0.36 0.37 0.39 0.42 0.46 0.51 0.51 0.46 0.44 0.41 0.45 0.46 0.41 0.40 0.39 0.38 0.39 0.39 0.41 0.38 0.35 0.32 0.28
0.25 0.26 0.27 0.27 0.24 0.24 0.25 0.25 0.26 0.27 0.29 0.29 0.29 0.30 0.29 0.33 0.39 0.43 0.38 0.34 0.34 0.35 0.37 0.39 0.43 0.48 0.52 0.50 0.47 0.46 0.43 0.42 0.44 0.36 0.32 0.36 0.37 0.41 0.42 0.39 0.36 0.34 0.33
0.26 0.27 0.28 0.28 0.24 0.23 0.23 0.23 0.25 0.26 0.26 0.26 0.27 0.29 0.30 0.33 0.39 0.43 0.38 0.35 0.35 0.34 0.36 0.37 0.39 0.43 0.50 0.51 0.48 0.45 0.43 0.43 0.43 0.43 0.41 0.37 0.36 0.38 0.40 0.40 0.40 0.38 0.38
0.27 0.28 0.29 0.29 0.25 0.23 0.22 0.23 0.25 0.26 0.26 0.28 0.30 0.30 0.30 0.31 0.36 0.41 0.39 0.34 0.32 0.30 0.33 0.36 0.38 0.41 0.45 0.52 0.49 0.46 0.45 0.45 0.46 0.47 0.46 0.45 0.44 0.47 0.43 0.34 0.28 0.29 0.31
0.25 0.28 0.30 0.29 0.26 0.25 0.25 0.25 0.27 0.29 0.29 0.31 0.32 0.33 0.34 0.33 0.35 0.39 0.41 0.35 0.32 0.28 0.29 0.32 0.36 0.41 0.43 0.43 0.45 0.45 0.44 0.45 0.45 0.44 0.43 0.43 0.44 0.43 0.43 0.42 0.37 0.29 0.26
0.27 0.28 0.28 0.28 0.27 0.27 0.27 0.28 0.28 0.29 0.30 0.31 0.33 0.35 0.36 0.38 0.38 0.40 0.40 0.37 0.34 0.31 0.29 0.29 0.32 0.38 0.40 0.41 0.41 0.42 0.46 0.49 0.46 0.45 0.45 0.44 0.44 0.43 0.43 0.44 0.44 0.41 0.37
0.29 0.28 0.28 0.27 0.27 0.28 0.27 0.28 0.29 0.29 0.29 0.30 0.31 0.33 0.36 0.39 0.41 0.41 0.41 0.40 0.39 0.33 0.31 0.33 0.34 0.35 0.36 0.36 0.38 0.41 0.42 0.44 0.45 0.45 0.43 0.42 0.42 0.42 0.43 0.45 0.45 0.45 0.45
0.31 0.30 0.29 0.29 0.29 0.30 0.28 0.28 0.28 0.30 0.30 0.30 0.32 0.32 0.34 0.37 0.41 0.42 0.41 0.40 0.39 0.35 0.35 0.36 0.37 0.35 0.33 0.32 0.34 0.36 0.37 0.37 0.37 0.39 0.41 0.42 0.44 0.45 0.46 0.45 0.46 0.46 0.45
0.31 0.33 0.33 0.31 0.30 0.31 0.32 0.32 0.31 0.31 0.31 0.32 0.33 0.34 0.36 0.37 0.40 0.43 0.42 0.39 0.38 0.36 0.34 0.33 0.36 0.35 0.34 0.33 0.31 0.31 0.32 0.34 0.36 0.36 0.36 0.40 0.43 0.45 0.44 0.46 0.43 0.43 0.42
0.29 0.33 0.34 0.34 0.34 0.32 0.33 0.33 0.32 0.35 0.36 0.35 0.37 0.38 0.38 0.37 0.42 0.45 0.42 0.38 0.37 0.36 0.33 0.32 0.31 0.34 0.33 0.30 0.30 0.30 0.30 0.30 0.30 0.32 0.35 0.37 0.38 0.39 0.41 0.45 0.44 0.43 0.40
0.26 0.29 0.33 0.34 0.35 0.36 0.35 0.34 0.38 0.39 0.41 0.42 0.43 0.42 0.43 0.44 0.45 0.44 0.42 0.39 0.37 0.35 0.31 0.29 0.29 0.31 0.34 0.35 0.32 0.30 0.28 0.28 0.29 0.30 0.30 0.31 0.32 0.35 0.36 0.39 0.40 0.39 0.37
0.26 0.27 0.30 0.32 0.34 0.34 0.34 0.34 0.33 0.37 0.40 0.41 0.41 0.42 0.42 0.43 0.43 0.42 0.40 0.37 0.35 0.33 0.29 0.28 0.28 0.29 0.31 0.35 0.36 0.34 0.31 0.30 0.29 0.30 0.30 0.29 0.30 0.30 0.31 0.31 0.32 0.32 0.32
0.30 0.29 0.29 0.31 0.32 0.33 0.33 0.32 0.33 0.32 0.31 0.32 0.36 0.37 0.38 0.39 0.39 0.38 0.36 0.32 0.29 0.29 0.28 0.27 0.28 0.29 0.30 0.32 0.37 0.37 0.35 0.33 0.29 0.29 0.29 0.30 0.30 0.30 0.30 0.30 0.30 0.30 0.30
0.35 0.32 0.31 0.31 0.32 0.33 0.34 0.33 0.32 0.31 0.30 0.30 0.31 0.32 0.35 0.37 0.37 0.35 0.34 0.29 0.26 0.25 0.26 0.27 0.28 0.30 0.30 0.30 0.33 0.42 0.40 0.35 0.32 0.29 0.28 0.28 0.28 0.28 0.27 0.28 0.29 0.29 0.30
0.38 0.37 0.36 0.34 0.34 0.34 0.34 0.32 0.30 0.29 0.29 0.29 0.30 0.31 0.34 0.35 0.33 0.32 0.32 0.30 0.28 0.27 0.27 0.27 0.27 0.29 0.30 0.31 0.32 0.34 0.43 0.40 0.34 0.30 0.28 0.28 0.28 0.28 0.27 0.27 0.28 0.28 0.28
0.38 0.39 0.38 0.37 0.36 0.35 0.34 0.32 0.31 0.30 0.30 0.30 0.31 0.35 0.37 0.35 0.34 0.34 0.32 0.29 0.28 0.27 0.27 0.27 0.28 0.28 0.29 0.30 0.31 0.32 0.37 0.42 0.38 0.33 0.30 0.28 0.28 0.27 0.27 0.27 0.27 0.27 0.28
0.39 0.39 0.40 0.39 0.38 0.36 0.35 0.34 0.33 0.32 0.32 0.32 0.34 0.37 0.39 0.38 0.38 0.35 0.31 0.29 0.29 0.30 0.30 0.29 0.29 0.29 0.29 0.29 0.30 0.32 0.35 0.41 0.41 0.36 0.31 0.29 0.28 0.27 0.26 0.26 0.25 0.25 0.26
0.39 0.39 0.40 0.41 0.39 0.37 0.35 0.35 0.34 0.34 0.35 0.36 0.38 0.38 0.38 0.37 0.36 0.32 0.30 0.30 0.30 0.30 0.31 0.30 0.28 0.28 0.29 0.30 0.31 0.33 0.35 0.41 0.43 0.41 0.33 0.28 0.26 0.26 0.26 0.24 0.23 0.24 0.24
0.38 0.39 0.40 0.40 0.39 0.37 0.36 0.35 0.35 0.36 0.37 0.39 0.39 0.39 0.37 0.34 0.33 0.32 0.31 0.30 0.30 0.30 0.30 0.30 0.29 0.29 0.29 0.30 0.32 0.34 0.38 0.46 0.49 0.43 0.37 0.30 0.27 0.26 0.25 0.24 0.23 0.23 0.24
0.39 0.39 0.39 0.41 0.40 0.39 0.37 0.37 0.38 0.39 0.39 0.39 0.37 0.34 0.33 0.33 0.32 0.32 0.31 0.31 0.30 0.29 0.30 0.31 0.30 0.30 0.30 0.30 0.32 0.34 0.38 0.46 0.46 0.41 0.36 0.32 0.30 0.28 0.25 0.24 0.23 0.23 0.24
0.38 0.39 0.40 0.41 0.41 0.40 0.40 0.40 0.40 0.39 0.36 0.34 0.33 0.33 0.33 0.33 0.32 0.32 0.32 0.31 0.30 0.30 0.30 0.31 0.31 0.31 0.31 0.32 0.32 0.35 0.38 0.43 0.41 0.38 0.35 0.33 0.31 0.29 0.27 0.25 0.24 0.24 0.24

GFSGL_prec_pwat_279.txt.gz
Precipitable_Water
0.24 0.24 0.25 0.26 0.28 0.30 0.30 0.32 0.33 0.34 0.33 0.33 0.34 0.36 0.40 0.45 0.45 0.42 0.41 0.42 0.41 0.39 0.40 0.40 0.41 0.47 0.49 0.51 0.52 0.52 0.44 0.48 0.45 0.48 0.54 0.57 0.57 0.59 0.60 0.64 0.65 0.66 0.67
0.24 0.24 0.24 0.26 0.27 0.29 0.30 0.32 0.34 0.33 0.34 0.33 0.33 0.34 0.37 0.41 0.46 0.42 0.39 0.40 0.40 0.40 0.39 0.40 0.38 0.44 0.46 0.51 0.51 0.49 0.49 0.46 0.39 0.37 0.48 0.51 0.53 0.57 0.58 0.59 0.62 0.64 0.65
0.25 0.25 0.25 0.25 0.25 0.27 0.29 0.31 0.33 0.33 0.33 0.33 0.32 0.31 0.32 0.37 0.45 0.46 0.41 0.38 0.39 0.40 0.40 0.42 0.41 0.44 0.41 0.46 0.48 0.49 0.50 0.51 0.47 0.41 0.38 0.42 0.46 0.53 0.52 0.54 0.54 0.56 0.59
0.25 0.25 0.24 0.25 0.25 0.26 0.28 0.30 0.31 0.32 0.33 0.32 0.33 0.31 0.31 0.33 0.43 0.46 0.42 0.38 0.38 0.39 0.41 0.44 0.46 0.47 0.46 0.43 0.43 0.46 0.49 0.48 0.48 0.44 0.40 0.38 0.40 0.42 0.44 0.41 0.41 0.47 0.48
0.23 0.24 0.24 0.26 0.27 0.26 0.27 0.28 0.29 0.31 0.33 0.33 0.32 0.31 0.30 0.33 0.39 0.46 0.40 0.35 0.36 0.37 0.40 0.42 0.45 0.51 0.54 0.50 0.46 0.42 0.44 0.46 0.45 0.44 0.42 0.41 0.40 0.38 0.35 0.37 0.35 0.37 0.38
0.23 0.23 0.26 0.27 0.26 0.25 0.25 0.26 0.27 0.29 0.30 0.31 0.30 0.31 0.31 0.35 0.41 0.47 0.41 0.36 0.35 0.35 0.35 0.39 0.44 0.47 0.52 0.53 0.51 0.48 0.46 0.42 0.38 0.35 0.38 0.38 0.39 0.40 0.41 0.39 0.35 0.32 0.27
0.24 0.24 0.26 0.27 0.26 0.24 0.24 0.24 0.25 0.27 0.29 0.29 0.30 0.32 0.33 0.35 0.41 0.45 0.46 0.38 0.34 0.34 0.35 0.36 0.37 0.42 0.49 0.51 0.50 0.49 0.46 0.45 0.45 0.42 0.35 0.31 0.31 0.36 0.40 0.39 0.37 0.35 0.33
0.25 0.25 0.27 0.27 0.26 0.24 0.23 0.23 0.24 0.27 0.28 0.29 0.31 0.33 0.34 0.36 0.39 0.42 0.47 0.41 0.36 0.33 0.33 0.35 0.37 0.40 0.45 0.47 0.48 0.47 0.47 0.47 0.47 0.47 0.45 0.43 0.45 0.46 0.42 0.34 0.33 0.35 0.37
0.25 0.26 0.28 0.29 0.27 0.24 0.23 0.24 0.26 0.28 0.29 0.31 0.34 0.35 0.35 0.38 0.40 0.42 0.45 0.40 0.36 0.35 0.33 0.34 0.36 0.39 0.44 0.45 0.45 0.44 0.46 0.47 0.49 0.49 0.47 0.47 0.46 0.44 0.46 0.41 0.35 0.29 0.23
0.25 0.26 0.29 0.30 0.28 0.26 0.26 0.26 0.28 0.30 0.31 0.32 0.33 0.37 0.38 0.38 0.42 0.44 0.45 0.41 0.36 0.35 0.35 0.35 0.35 0.39 0.41 0.42 0.41 0.40 0.42 0.46 0.46 0.45 0.46 0.46 0.46 0.44 0.44 0.42 0.40 0.34 0.33
0.29 0.28 0.28 0.30 0.29 0.28 0.28 0.29 0.29 0.30 0.31 0.32 0.32 0.35 0.38 0.39 0.42 0.44 0.44 0.40 0.38 0.35 0.33 0.35 0.37 0.39 0.38 0.38 0.39 0.39 0.41 0.45 0.44 0.45 0.44 0.44 0.44 0.43 0.44 0.44 0.44 0.41 0.37
0.31 0.30 0.29 0.30 0.30 0.29 0.29 0.30 0.30 0.31 0.31 0.31 0.32 0.33 0.37 0.40 0.41 0.44 0.44 0.40 0.40 0.35 0.32 0.35 0.38 0.40 0.38 0.36 0.36 0.37 0.39 0.38 0.38 0.39 0.41 0.41 0.42 0.42 0.44 0.45 0.45 0.45 0.45
0.31 0.31 0.32 0.32 0.31 0.31 0.31 0.31 0.31 0.32 0.32 0.32 0.33 0.34 0.36 0.41 0.42 0.45 0.44 0.40 0.37 0.35 0.35 0.33 0.35 0.37 0.37 0.34 0.35 0.34 0.32 0.32 0.33 0.35 0.34 0.36 0.40 0.42 0.44 0.44 0.45 0.45 0.45
0.29 0.31 0.33 0.34 0.33 0.34 0.34 0.34 0.33 0.32 0.32 0.33 0.34 0.35 0.38 0.41 0.42 0.45 0.43 0.39 0.35 0.34 0.33 0.30 0.31 0.32 0.34 0.37 0.33 0.31 0.30 0.31 0.30 0.29 0.31 0.36 0.38 0.38 0.39 0.42 0.41 0.41 0.40
0.28 0.30 0.31 0.34 0.35 0.35 0.36 0.36 0.36 0.37 0.37 0.36 0.37 0.40 0.39 0.39 0.41 0.46 0.41 0.37 0.33 0.33 0.31 0.29 0.28 0.28 0.29 0.33 0.35 0.32 0.31 0.28 0.28 0.29 0.29 0.29 0.30 0.32 0.34 0.37 0.37 0.37 0.34
0.27 0.28 0.30 0.32 0.34 0.36 0.36 0.37 0.40 0.40 0.41 0.42 0.43 0.42 0.42 0.44 0.44 0.43 0.39 0.35 0.32 0.32 0.27 0.26 0.26 0.27 0.27 0.30 0.34 0.35 0.33 0.29 0.27 0.28 0.29 0.29 0.29 0.29 0.30 0.31 0.32 0.32 0.31
0.31 0.30 0.30 0.31 0.32 0.33 0.34 0.33 0.31 0.35 0.38 0.39 0.39 0.40 0.40 0.41 0.41 0.39 0.36 0.32 0.31 0.29 0.25 0.25 0.26 0.27 0.27 0.29 0.33 0.39 0.35 0.34 0.30 0.28 0.28 0.28 0.28 0.28 0.28 0.28 0.29 0.29 0.28
0.35 0.35 0.34 0.33 0.33 0.33 0.33 0.33 0.33 0.31 0.30 0.31 0.35 0.36 0.38 0.39 0.39 0.37 0.34 0.31 0.27 0.26 0.25 0.25 0.25 0.26 0.28 0.29 0.30 0.34 0.43 0.37 0.33 0.29 0.28 0.28 0.28 0.27 0.26 0.27 0.28 0.28 0.28
0.35 0.36 0.37 0.37 0.37 0.35 0.34 0.34 0.34 0.33 0.31 0.30 0.32 0.34 0.37 0.38 0.38 0.37 0.34 0.29 0.25 0.24 0.24 0.25 0.26 0.26 0.27 0.29 0.30 0.32 0.37 0.42 0.36 0.32 0.28 0.28 0.28 0.27 0.26 0.26 0.27 0.28 0.28
0.34 0.37 0.38 0.38 0.38 0.38 0.36 0.34 0.34 0.33 0.31 0.31 0.31 0.32 0.37 0.37 0.35 0.34 0.33 0.29 0.26 0.25 0.26 0.26 0.27 0.27 0.28 0.28 0.30 0.31 0.34 0.39 0.40 0.34 0.30 0.29 0.28 0.28 0.26 0.26 0.26 0.26 0.26
0.31 0.36 0.38 0.39 0.40 0.39 0.38 0.36 0.35 0.34 0.32 0.31 0.33 0.37 0.40 0.37 0.36 0.35 0.30 0.28 0.27 0.27 0.27 0.27 0.27 0.27 0.27 0.28 0.29 0.30 0.32 0.37 0.40 0.38 0.33 0.29 0.28 0.27 0.27 0.26 0.25 0.25 0.26
0.30 0.33 0.36 0.38 0.40 0.40 0.40 0.38 0.36 0.34 0.33 0.33 0.36 0.39 0.41 0.39 0.37 0.33 0.30 0.28 0.28 0.29 0.30 0.28 0.27 0.27 0.27 0.27 0.28 0.29 0.31 0.37 0.42 0.40 0.35 0.31 0.28 0.26 0.25 0.25 0.24 0.23 0.24
0.29 0.31 0.34 0.37 0.39 0.41 0.41 0.39 0.36 0.35 0.34 0.36 0.38 0.38 0.38 0.37 0.34 0.32 0.30 0.29 0.29 0.29 0.30 0.29 0.28 0.28 0.29 0.29 0.31 0.32 0.32 0.38 0.44 0.42 0.37 0.32 0.29 0.27 0.25 0.23 0.22 0.22 0.23
0.30 0.30 0.32 0.35 0.38 0.40 0.40 0.38 0.38 0.37 0.36 0.37 0.39 0.39 0.36 0.33 0.32 0.32 0.31 0.30 0.30 0.30 0.31 0.30 0.30 0.29 0.29 0.30 0.31 0.33 0.36 0.43 0.45 0.40 0.37 0.33 0.30 0.29 0.27 0.25 0.23 0.23 0.24
0.31 0.31 0.32 0.33 0.36 0.39 0.40 0.39 0.39 0.39 0.39 0.39 0.38 0.35 0.32 0.32 0.32 0.33 0.32 0.31 0.30 0.29 0.30 0.30 0.30 0.30 0.30 0.31 0.31 0.34 0.38 0.41 0.39 0.37 0.34 0.32 0.32 0.31 0.30 0.27 0.26 0.25 0.25
0.33 0.33 0.33 0.34 0.34 0.38 0.40 0.40 0.41 0.42 0.40 0.37 0.34 0.33 0.33 0.33 0.33 0.34 0.33 0.31 0.30 0.29 0.30 0.30 0.30 0.30 0.31 0.31 0.32 0.34 0.36 0.37 0.37 0.35 0.32 0.30 0.30 0.30 0.30 0.29 0.29 0.28 0.27

GFSGL_prec_pwat_282.txt.gz
Precipitable_Water
0.24 0.25 0.25 0.27 0.28 0.30 0.31 0.33 0.34 0.36 0.36 0.35 0.35 0.35 0.36 0.40 0.45 0.46 0.42 0.39 0.39 0.40 0.40 0.40 0.42 0.47 0.47 0.50 0.51 0.51 0.49 0.46 0.44 0.49 0.55 0.59 0.60 0.61 0.62 0.66 0.70 0.71 0.70
0.24 0.25 0.25 0.26 0.27 0.28 0.30 0.32 0.34 0.34 0.36 0.35 0.35 0.33 0.34 0.37 0.41 0.44 0.42 0.40 0.37 0.38 0.40 0.41 0.41 0.45 0.45 0.47 0.49 0.49 0.50 0.50 0.43 0.40 0.49 0.53 0.56 0.60 0.61 0.62 0.64 0.65 0.66
0.24 0.24 0.25 0.25 0.25 0.26 0.28 0.30 0.32 0.33 0.34 0.35 0.35 0.34 0.33 0.33 0.38 0.45 0.42 0.39 0.38 0.38 0.40 0.42 0.44 0.46 0.49 0.46 0.46 0.46 0.49 0.50 0.50 0.44 0.39 0.45 0.50 0.56 0.56 0.58 0.58 0.59 0.60
0.23 0.24 0.24 0.25 0.26 0.27 0.28 0.29 0.30 0.32 0.34 0.35 0.35 0.36 0.35 0.35 0.41 0.48 0.42 0.39 0.37 0.38 0.40 0.41 0.44 0.46 0.50 0.51 0.46 0.46 0.45 0.46 0.49 0.47 0.44 0.42 0.43 0.47 0.50 0.49 0.49 0.53 0.53
0.23 0.23 0.24 0.26 0.27 0.27 0.27 0.28 0.29 0.30 0.32 0.33 0.34 0.35 0.37 0.38 0.41 0.49 0.47 0.42 0.38 0.37 0.38 0.40 0.42 0.47 0.52 0.52 0.50 0.47 0.46 0.45 0.42 0.42 0.41 0.41 0.40 0.38 0.37 0.41 0.39 0.41 0.45
0.23 0.23 0.26 0.27 0.28 0.28 0.27 0.27 0.28 0.29 0.30 0.31 0.33 0.35 0.37 0.38 0.42 0.48 0.51 0.44 0.40 0.37 0.35 0.38 0.40 0.43 0.48 0.52 0.52 0.51 0.48 0.44 0.41 0.39 0.32 0.32 0.37 0.39 0.39 0.36 0.36 0.32 0.29
0.25 0.25 0.26 0.27 0.29 0.28 0.26 0.26 0.26 0.28 0.29 0.30 0.32 0.35 0.38 0.40 0.41 0.44 0.47 0.45 0.42 0.39 0.35 0.36 0.37 0.42 0.47 0.49 0.50 0.50 0.49 0.49 0.47 0.45 0.39 0.38 0.34 0.33 0.35 0.36 0.35 0.32 0.31
0.26 0.26 0.27 0.28 0.29 0.29 0.26 0.25 0.26 0.28 0.30 0.31 0.33 0.36 0.38 0.40 0.42 0.43 0.45 0.45 0.42 0.41 0.37 0.36 0.38 0.41 0.45 0.47 0.46 0.47 0.49 0.49 0.48 0.48 0.46 0.46 0.46 0.45 0.43 0.40 0.33 0.32 0.35
0.26 0.27 0.28 0.30 0.30 0.30 0.27 0.26 0.28 0.29 0.30 0.32 0.34 0.35 0.37 0.40 0.42 0.43 0.45 0.44 0.39 0.38 0.36 0.37 0.38 0.42 0.45 0.45 0.43 0.42 0.46 0.48 0.50 0.49 0.49 0.48 0.47 0.46 0.45 0.42 0.37 0.34 0.30
0.27 0.27 0.29 0.30 0.30 0.29 0.29 0.29 0.30 0.31 0.31 0.33 0.34 0.36 0.37 0.39 0.41 0.42 0.44 0.43 0.38 0.37 0.35 0.34 0.39 0.42 0.43 0.43 0.39 0.39 0.39 0.43 0.46 0.46 0.47 0.46 0.46 0.46 0.45 0.45 0.42 0.35 0.34
0.31 0.31 0.30 0.30 0.30 0.31 0.31 0.31 0.31 0.31 0.32 0.33 0.34 0.36 0.38 0.41 0.40 0.41 0.43 0.41 0.37 0.35 0.33 0.30 0.35 0.40 0.41 0.40 0.39 0.38 0.38 0.41 0.41 0.44 0.45 0.45 0.45 0.44 0.44 0.45 0.44 0.41 0.37
0.33 0.33 0.33 0.32 0.32 0.31 0.32 0.33 0.33 0.33 0.32 0.33 0.34 0.36 0.39 0.43 0.42 0.41 0.43 0.41 0.38 0.33 0.32 0.31 0.33 0.35 0.37 0.37 0.37 0.36 0.34 0.34 0.35 0.37 0.37 0.39 0.41 0.43 0.44 0.45 0.45 0.44 0.44
0.32 0.33 0.35 0.35 0.35 0.35 0.33 0.34 0.34 0.35 0.34 0.33 0.34 0.35 0.38 0.43 0.43 0.42 0.42 0.39 0.36 0.32 0.33 0.31 0.30 0.31 0.33 0.36 0.37 0.33 0.31 0.31 0.30 0.30 0.31 0.35 0.37 0.39 0.41 0.42 0.43 0.44 0.44
0.28 0.31 0.35 0.36 0.36 0.37 0.37 0.37 0.36 0.36 0.35 0.34 0.35 0.36 0.39 0.42 0.42 0.41 0.40 0.37 0.34 0.32 0.33 0.30 0.29 0.29 0.31 0.33 0.37 0.36 0.31 0.28 0.28 0.29 0.29 0.30 0.33 0.34 0.34 0.37 0.36 0.37 0.35
0.28 0.29 0.32 0.34 0.36 0.37 0.38 0.39 0.38 0.40 0.38 0.36 0.37 0.39 0.39 0.38 0.40 0.41 0.38 0.34 0.32 0.31 0.31 0.28 0.28 0.27 0.27 0.30 0.34 0.37 0.35 0.30 0.26 0.27 0.29 0.29 0.30 0.30 0.31 0.33 0.33 0.33 0.32
0.29 0.30 0.30 0.32 0.34 0.35 0.36 0.37 0.42 0.41 0.41 0.41 0.41 0.41 0.41 0.41 0.42 0.40 0.37 0.34 0.31 0.30 0.27 0.25 0.25 0.26 0.26 0.28 0.31 0.37 0.36 0.34 0.28 0.28 0.27 0.28 0.28 0.28 0.28 0.30 0.31 0.30 0.29
0.30 0.32 0.32 0.32 0.33 0.34 0.34 0.34 0.33 0.38 0.39 0.38 0.38 0.39 0.39 0.39 0.40 0.38 0.35 0.32 0.30 0.27 0.24 0.24 0.24 0.25 0.26 0.28 0.29 0.33 0.40 0.38 0.35 0.29 0.28 0.28 0.28 0.27 0.27 0.27 0.28 0.29 0.28
0.29 0.32 0.33 0.33 0.34 0.35 0.35 0.35 0.35 0.33 0.33 0.34 0.37 0.36 0.39 0.38 0.39 0.37 0.35 0.31 0.27 0.26 0.25 0.24 0.24 0.25 0.26 0.27 0.29 0.31 0.35 0.41 0.37 0.33 0.29 0.28 0.28 0.28 0.27 0.26 0.27 0.27 0.28
0.26 0.29 0.32 0.34 0.35 0.36 0.38 0.37 0.37 0.35 0.34 0.33 0.34 0.35 0.38 0.37 0.39 0.37 0.35 0.29 0.25 0.24 0.25 0.25 0.25 0.25 0.26 0.27 0.29 0.31 0.33 0.37 0.40 0.36 0.32 0.28 0.28 0.28 0.27 0.27 0.26 0.27 0.27
0.26 0.27 0.30 0.32 0.34 0.36 0.38 0.39 0.38 0.37 0.35 0.34 0.32 0.33 0.37 0.37 0.36 0.36 0.33 0.28 0.26 0.26 0.26 0.25 0.26 0.26 0.26 0.27 0.28 0.29 0.31 0.34 0.38 0.37 0.35 0.31 0.29 0.28 0.27 0.26 0.25 0.25 0.25
0.27 0.28 0.29 0.30 0.32 0.35 0.37 0.39 0.39 0.38 0.37 0.35 0.34 0.36 0.38 0.37 0.37 0.36 0.31 0.28 0.27 0.27 0.27 0.26 0.26 0.27 0.27 0.27 0.28 0.28 0.30 0.33 0.39 0.40 0.37 0.34 0.30 0.27 0.27 0.26 0.25 0.24 0.24
0.28 0.28 0.29 0.30 0.32 0.34 0.36 0.38 0.39 0.39 0.38 0.36 0.36 0.38 0.40 0.39 0.37 0.34 0.30 0.29 0.29 0.29 0.29 0.28 0.27 0.27 0.27 0.28 0.28 0.28 0.29 0.32 0.40 0.40 0.38 0.36 0.32 0.30 0.28 0.26 0.24 0.24 0.24
0.30 0.29 0.29 0.31 0.32 0.34 0.35 0.37 0.39 0.39 0.38 0.37 0.37 0.39 0.39 0.37 0.36 0.33 0.31 0.30 0.29 0.29 0.30 0.29 0.28 0.28 0.29 0.30 0.31 0.31 0.31 0.35 0.40 0.39 0.38 0.35 0.32 0.30 0.30 0.28 0.26 0.24 0.24
0.33 0.31 0.30 0.31 0.32 0.32 0.34 0.36 0.38 0.38 0.39 0.38 0.39 0.40 0.39 0.37 0.33 0.33 0.32 0.31 0.30 0.30 0.31 0.30 0.29 0.29 0.29 0.30 0.32 0.33 0.37 0.40 0.40 0.37 0.35 0.32 0.31 0.31 0.31 0.30 0.29 0.28 0.27
0.36 0.34 0.32 0.31 0.32 0.33 0.33 0.35 0.36 0.36 0.38 0.40 0.41 0.41 0.38 0.34 0.33 0.34 0.34 0.33 0.31 0.30 0.30 0.30 0.30 0.29 0.29 0.30 0.31 0.33 0.36 0.37 0.38 0.35 0.32 0.30 0.29 0.30 0.30 0.30 0.30 0.30 0.29
0.38 0.36 0.35 0.34 0.33 0.34 0.33 0.33 0.34 0.35 0.38 0.42 0.41 0.38 0.36 0.34 0.34 0.34 0.35 0.34 0.32 0.31 0.31 0.30 0.30 0.29 0.30 0.30 0.31 0.33 0.34 0.34 0.34 0.32 0.30 0.29 0.28 0.28 0.29 0.29 0.30 0.30 0.30

GFSGL_prec_pwat_285.txt.gz
Precipitable_Water
0.24 0.25 0.26 0.26 0.27 0.28 0.30 0.33 0.35 0.36 0.37 0.38 0.38 0.39 0.38 0.38 0.42 0.43 0.45 0.44 0.41 0.40 0.42 0.42 0.43 0.45 0.47 0.51 0.51 0.50 0.50 0.50 0.41 0.46 0.52 0.56 0.57 0.59 0.62 0.66 0.69 0.72 0.75
0.24 0.25 0.25 0.26 0.27 0.28 0.29 0.32 0.34 0.34 0.36 0.37 0.38 0.38 0.39 0.38 0.39 0.43 0.45 0.44 0.40 0.39 0.40 0.41 0.42 0.46 0.49 0.53 0.50 0.47 0.47 0.50 0.48 0.41 0.45 0.49 0.52 0.58 0.60 0.61 0.64 0.65 0.65
0.24 0.24 0.25 0.26 0.27 0.28 0.29 0.31 0.32 0.32 0.33 0.35 0.37 0.37 0.39 0.39 0.38 0.45 0.49 0.45 0.42 0.40 0.40 0.42 0.42 0.44 0.47 0.52 0.50 0.47 0.47 0.47 0.49 0.48 0.46 0.45 0.49 0.56 0.56 0.58 0.59 0.61 0.61
0.24 0.24 0.25 0.26 0.28 0.29 0.30 0.30 0.31 0.31 0.31 0.33 0.35 0.36 0.38 0.40 0.41 0.46 0.50 0.51 0.46 0.41 0.41 0.42 0.42 0.44 0.45 0.52 0.50 0.48 0.47 0.43 0.45 0.46 0.45 0.44 0.44 0.46 0.50 0.49 0.49 0.53 0.53
0.24 0.24 0.25 0.28 0.29 0.30 0.30 0.30 0.30 0.30 0.31 0.32 0.32 0.34 0.37 0.40 0.40 0.42 0.46 0.48 0.47 0.42 0.42 0.41 0.42 0.44 0.48 0.53 0.50 0.50 0.46 0.44 0.43 0.38 0.37 0.39 0.40 0.39 0.37 0.39 0.40 0.46 0.47
0.26 0.24 0.26 0.27 0.28 0.29 0.30 0.29 0.29 0.29 0.30 0.31 0.31 0.33 0.36 0.39 0.40 0.41 0.44 0.45 0.47 0.42 0.39 0.38 0.41 0.41 0.46 0.49 0.52 0.52 0.51 0.46 0.43 0.41 0.39 0.34 0.33 0.35 0.37 0.36 0.35 0.30 0.29
0.27 0.26 0.26 0.27 0.27 0.30 0.31 0.27 0.27 0.28 0.29 0.30 0.32 0.34 0.36 0.38 0.40 0.41 0.43 0.45 0.47 0.41 0.38 0.36 0.39 0.41 0.45 0.49 0.48 0.53 0.50 0.50 0.50 0.46 0.42 0.42 0.41 0.40 0.38 0.35 0.35 0.33 0.31
0.28 0.27 0.28 0.27 0.28 0.30 0.31 0.28 0.27 0.28 0.29 0.31 0.33 0.35 0.36 0.38 0.39 0.40 0.42 0.44 0.45 0.40 0.37 0.35 0.37 0.40 0.45 0.48 0.43 0.44 0.47 0.48 0.49 0.48 0.47 0.46 0.46 0.46 0.44 0.41 0.38 0.34 0.35
0.29 0.29 0.29 0.30 0.29 0.31 0.32 0.31 0.30 0.29 0.30 0.32 0.34 0.35 0.36 0.37 0.38 0.39 0.41 0.41 0.41 0.39 0.37 0.33 0.35 0.38 0.46 0.46 0.39 0.39 0.42 0.45 0.50 0.49 0.49 0.48 0.48 0.47 0.45 0.43 0.38 0.35 0.32
0.29 0.31 0.31 0.31 0.31 0.31 0.33 0.33 0.33 0.33 0.32 0.33 0.33 0.36 0.38 0.37 0.39 0.39 0.40 0.40 0.37 0.36 0.36 0.32 0.33 0.37 0.42 0.43 0.39 0.36 0.35 0.38 0.44 0.45 0.47 0.46 0.46 0.45 0.45 0.44 0.41 0.35 0.34
0.30 0.33 0.34 0.33 0.32 0.33 0.34 0.35 0.35 0.34 0.34 0.34 0.35 0.37 0.39 0.40 0.40 0.40 0.40 0.39 0.36 0.34 0.32 0.32 0.32 0.34 0.35 0.39 0.39 0.36 0.33 0.36 0.37 0.40 0.40 0.42 0.44 0.44 0.44 0.44 0.43 0.40 0.36
0.30 0.32 0.35 0.36 0.35 0.35 0.35 0.36 0.36 0.36 0.35 0.35 0.35 0.36 0.40 0.42 0.43 0.41 0.39 0.39 0.38 0.33 0.30 0.31 0.30 0.31 0.31 0.36 0.38 0.34 0.31 0.33 0.33 0.34 0.35 0.37 0.37 0.38 0.41 0.42 0.44 0.43 0.43
0.29 0.30 0.34 0.36 0.37 0.38 0.37 0.36 0.37 0.38 0.37 0.36 0.35 0.35 0.38 0.42 0.43 0.42 0.39 0.39 0.37 0.33 0.32 0.32 0.29 0.30 0.30 0.32 0.36 0.36 0.31 0.28 0.29 0.29 0.28 0.30 0.32 0.35 0.37 0.39 0.40 0.40 0.40
0.29 0.28 0.31 0.33 0.35 0.37 0.39 0.38 0.37 0.37 0.37 0.37 0.36 0.36 0.38 0.41 0.41 0.41 0.38 0.37 0.35 0.34 0.33 0.31 0.29 0.29 0.30 0.30 0.34 0.37 0.36 0.29 0.27 0.27 0.29 0.31 0.32 0.32 0.32 0.34 0.33 0.35 0.35
0.30 0.29 0.29 0.31 0.33 0.35 0.37 0.38 0.39 0.40 0.40 0.37 0.37 0.37 0.38 0.38 0.40 0.40 0.37 0.35 0.33 0.30 0.29 0.28 0.27 0.27 0.26 0.28 0.31 0.36 0.36 0.34 0.27 0.27 0.28 0.29 0.29 0.30 0.30 0.32 0.33 0.32 0.31
0.26 0.28 0.29 0.30 0.32 0.33 0.34 0.37 0.41 0.41 0.42 0.41 0.40 0.39 0.40 0.41 0.40 0.40 0.38 0.35 0.32 0.29 0.26 0.25 0.25 0.25 0.25 0.26 0.28 0.33 0.40 0.36 0.33 0.29 0.27 0.27 0.27 0.28 0.27 0.29 0.30 0.29 0.28
0.23 0.24 0.27 0.29 0.31 0.32 0.33 0.34 0.34 0.41 0.43 0.40 0.39 0.39 0.40 0.38 0.39 0.38 0.36 0.33 0.30 0.27 0.24 0.24 0.24 0.25 0.26 0.27 0.27 0.29 0.33 0.40 0.38 0.34 0.29 0.28 0.27 0.28 0.28 0.27 0.27 0.28 0.27
0.24 0.24 0.24 0.27 0.29 0.31 0.33 0.34 0.36 0.36 0.36 0.38 0.41 0.38 0.39 0.39 0.37 0.38 0.36 0.32 0.29 0.27 0.25 0.24 0.24 0.25 0.26 0.26 0.27 0.28 0.31 0.37 0.40 0.37 0.34 0.30 0.28 0.28 0.27 0.27 0.27 0.26 0.26
0.25 0.25 0.25 0.26 0.28 0.31 0.32 0.34 0.35 0.36 0.37 0.38 0.40 0.39 0.39 0.38 0.37 0.39 0.36 0.31 0.26 0.25 0.25 0.25 0.26 0.26 0.26 0.26 0.28 0.29 0.30 0.33 0.37 0.38 0.36 0.33 0.30 0.28 0.27 0.27 0.26 0.26 0.26
0.29 0.27 0.27 0.26 0.27 0.29 0.31 0.32 0.34 0.36 0.37 0.38 0.38 0.37 0.39 0.38 0.36 0.37 0.37 0.32 0.28 0.27 0.26 0.25 0.26 0.27 0.27 0.27 0.28 0.29 0.30 0.32 0.35 0.39 0.37 0.35 0.33 0.30 0.28 0.26 0.26 0.25 0.24
0.32 0.31 0.28 0.28 0.28 0.28 0.30 0.31 0.33 0.36 0.37 0.38 0.39 0.40 0.40 0.37 0.37 0.37 0.36 0.32 0.28 0.27 0.26 0.26 0.26 0.27 0.28 0.28 0.28 0.29 0.29 0.31 0.35 0.39 0.39 0.37 0.35 0.31 0.30 0.29 0.27 0.26 0.25
0.35 0.33 0.31 0.29 0.29 0.28 0.29 0.31 0.33 0.35 0.36 0.37 0.39 0.40 0.40 0.39 0.39 0.38 0.35 0.31 0.30 0.30 0.29 0.28 0.27 0.28 0.28 0.28 0.28 0.28 0.29 0.30 0.35 0.38 0.37 0.38 0.35 0.32 0.31 0.31 0.30 0.27 0.26
0.36 0.35 0.34 0.32 0.31 0.30 0.31 0.32 0.33 0.34 0.35 0.37 0.38 0.39 0.39 0.41 0.39 0.37 0.35 0.33 0.31 0.31 0.31 0.29 0.28 0.28 0.29 0.30 0.31 0.31 0.31 0.34 0.37 0.37 0.36 0.34 0.32 0.31 0.31 0.31 0.30 0.29 0.28
0.38 0.36 0.36 0.35 0.34 0.33 0.32 0.32 0.33 0.34 0.35 0.36 0.36 0.37 0.39 0.42 0.41 0.37 0.35 0.34 0.33 0.32 0.32 0.30 0.29 0.28 0.29 0.30 0.31 0.32 0.35 0.38 0.38 0.38 0.34 0.30 0.29 0.29 0.29 0.29 0.29 0.30 0.30
0.41 0.38 0.37 0.36 0.36 0.34 0.33 0.33 0.33 0.34 0.34 0.35 0.34 0.36 0.40 0.43 0.40 0.36 0.35 0.36 0.34 0.33 0.32 0.31 0.31 0.30 0.29 0.30 0.30 0.31 0.34 0.34 0.34 0.35 0.32 0.30 0.28 0.28 0.28 0.29 0.29 0.29 0.30
0.43 0.40 0.39 0.39 0.38 0.37 0.35 0.33 0.33 0.34 0.33 0.33 0.34 0.37 0.40 0.39 0.39 0.38 0.36 0.36 0.35 0.34 0.33 0.32 0.31 0.30 0.30 0.30 0.31 0.32 0.33 0.34 0.34 0.33 0.30 0.28 0.27 0.28 0.28 0.28 0.28 0.28 0.28

GFSGL_prec_pwat_288.txt.gz
Precipitable_Water
0.25 0.25 0.25 0.26 0.27 0.28 0.28 0.30 0.32 0.34 0.35 0.35 0.37 0.39 0.40 0.40 0.39 0.40 0.46 0.48 0.45 0.41 0.41 0.42 0.42 0.45 0.45 0.51 0.54 0.50 0.47 0.48 0.41 0.46 0.51 0.50 0.49 0.53 0.58 0.64 0.68 0.69 0.71
0.26 0.24 0.25 0.26 0.27 0.27 0.27 0.29 0.31 0.31 0.33 0.34 0.35 0.37 0.39 0.39 0.38 0.38 0.44 0.47 0.46 0.42 0.40 0.40 0.41 0.44 0.44 0.50 0.54 0.49 0.48 0.45 0.44 0.41 0.48 0.50 0.49 0.53 0.54 0.55 0.61 0.64 0.63
0.28 0.25 0.25 0.25 0.26 0.26 0.27 0.29 0.30 0.31 0.31 0.32 0.34 0.35 0.36 0.36 0.37 0.40 0.47 0.45 0.48 0.45 0.42 0.40 0.39 0.40 0.42 0.48 0.51 0.48 0.46 0.45 0.43 0.45 0.43 0.48 0.47 0.49 0.49 0.50 0.51 0.55 0.60
0.29 0.26 0.24 0.25 0.26 0.28 0.29 0.30 0.30 0.30 0.30 0.30 0.32 0.33 0.35 0.35 0.36 0.40 0.40 0.41 0.44 0.44 0.41 0.42 0.39 0.39 0.42 0.47 0.49 0.48 0.47 0.45 0.43 0.40 0.39 0.40 0.41 0.42 0.43 0.43 0.43 0.48 0.48
0.28 0.27 0.25 0.26 0.28 0.29 0.30 0.30 0.30 0.30 0.30 0.30 0.30 0.31 0.34 0.34 0.35 0.37 0.38 0.40 0.42 0.42 0.39 0.39 0.39 0.42 0.45 0.47 0.49 0.49 0.47 0.45 0.44 0.41 0.37 0.35 0.35 0.34 0.32 0.37 0.37 0.39 0.46
0.27 0.27 0.27 0.27 0.28 0.29 0.30 0.30 0.30 0.29 0.29 0.30 0.29 0.31 0.33 0.34 0.35 0.38 0.40 0.40 0.42 0.42 0.36 0.35 0.36 0.41 0.45 0.43 0.49 0.52 0.50 0.47 0.44 0.42 0.41 0.38 0.38 0.36 0.36 0.34 0.34 0.31 0.29
0.27 0.28 0.28 0.28 0.27 0.28 0.30 0.31 0.30 0.28 0.29 0.28 0.29 0.32 0.33 0.35 0.36 0.38 0.40 0.40 0.41 0.42 0.36 0.34 0.32 0.36 0.44 0.45 0.42 0.46 0.47 0.49 0.49 0.45 0.41 0.41 0.40 0.41 0.39 0.33 0.32 0.32 0.31
0.27 0.29 0.29 0.29 0.29 0.30 0.30 0.31 0.32 0.30 0.28 0.29 0.30 0.32 0.35 0.36 0.38 0.38 0.38 0.38 0.40 0.40 0.37 0.34 0.31 0.33 0.41 0.44 0.38 0.36 0.42 0.45 0.47 0.46 0.45 0.44 0.45 0.45 0.43 0.40 0.39 0.38 0.35
0.26 0.29 0.30 0.30 0.30 0.31 0.31 0.32 0.34 0.32 0.30 0.30 0.32 0.33 0.34 0.36 0.37 0.38 0.38 0.36 0.37 0.37 0.36 0.33 0.32 0.32 0.38 0.43 0.38 0.32 0.35 0.39 0.46 0.48 0.48 0.48 0.47 0.46 0.45 0.42 0.37 0.35 0.32
0.25 0.28 0.32 0.33 0.32 0.31 0.32 0.34 0.36 0.35 0.33 0.33 0.33 0.34 0.36 0.37 0.38 0.39 0.39 0.36 0.35 0.34 0.33 0.33 0.31 0.34 0.35 0.39 0.37 0.33 0.31 0.32 0.37 0.41 0.43 0.45 0.45 0.45 0.44 0.42 0.40 0.34 0.33
0.28 0.28 0.31 0.33 0.34 0.34 0.34 0.36 0.37 0.36 0.35 0.34 0.34 0.35 0.37 0.40 0.40 0.41 0.40 0.37 0.35 0.33 0.30 0.29 0.30 0.32 0.31 0.35 0.38 0.33 0.30 0.33 0.33 0.36 0.38 0.40 0.41 0.42 0.42 0.43 0.43 0.39 0.35
0.30 0.28 0.28 0.31 0.34 0.36 0.35 0.36 0.37 0.37 0.35 0.35 0.35 0.35 0.38 0.40 0.42 0.42 0.41 0.39 0.39 0.34 0.29 0.30 0.30 0.29 0.30 0.32 0.36 0.37 0.32 0.30 0.29 0.30 0.31 0.32 0.33 0.34 0.37 0.40 0.40 0.40 0.40
0.27 0.29 0.29 0.30 0.32 0.35 0.34 0.35 0.36 0.37 0.37 0.36 0.35 0.35 0.35 0.39 0.41 0.42 0.41 0.39 0.38 0.36 0.33 0.31 0.31 0.29 0.29 0.29 0.32 0.38 0.35 0.28 0.26 0.25 0.26 0.28 0.31 0.32 0.34 0.37 0.39 0.40 0.40
0.24 0.27 0.30 0.30 0.29 0.32 0.34 0.35 0.35 0.37 0.37 0.37 0.36 0.35 0.35 0.38 0.40 0.42 0.40 0.38 0.35 0.33 0.32 0.30 0.29 0.29 0.30 0.30 0.31 0.34 0.35 0.33 0.28 0.26 0.26 0.29 0.31 0.31 0.31 0.32 0.32 0.33 0.32
0.24 0.25 0.27 0.30 0.30 0.30 0.31 0.33 0.33 0.36 0.38 0.37 0.38 0.38 0.36 0.36 0.40 0.43 0.40 0.35 0.33 0.30 0.28 0.27 0.26 0.26 0.25 0.27 0.28 0.34 0.37 0.34 0.31 0.28 0.27 0.27 0.27 0.28 0.29 0.30 0.30 0.30 0.28
0.24 0.24 0.25 0.26 0.28 0.29 0.30 0.31 0.37 0.38 0.40 0.42 0.43 0.42 0.40 0.42 0.42 0.41 0.39 0.36 0.33 0.30 0.25 0.25 0.24 0.24 0.24 0.26 0.26 0.28 0.34 0.39 0.35 0.33 0.29 0.28 0.27 0.26 0.27 0.29 0.29 0.28 0.27
0.26 0.25 0.25 0.25 0.26 0.26 0.28 0.29 0.29 0.36 0.40 0.42 0.43 0.43 0.43 0.41 0.42 0.39 0.38 0.35 0.32 0.29 0.25 0.24 0.23 0.24 0.24 0.26 0.27 0.28 0.29 0.36 0.40 0.36 0.33 0.30 0.28 0.28 0.27 0.27 0.27 0.26 0.25
0.31 0.29 0.27 0.26 0.25 0.26 0.26 0.27 0.30 0.31 0.32 0.35 0.42 0.43 0.43 0.42 0.41 0.39 0.37 0.35 0.30 0.29 0.26 0.24 0.24 0.24 0.25 0.25 0.27 0.28 0.30 0.32 0.37 0.38 0.35 0.33 0.31 0.28 0.27 0.26 0.26 0.25 0.25
0.34 0.32 0.32 0.29 0.27 0.26 0.26 0.27 0.29 0.30 0.32 0.34 0.38 0.42 0.43 0.44 0.42 0.39 0.38 0.34 0.30 0.26 0.26 0.25 0.26 0.26 0.25 0.26 0.27 0.29 0.29 0.31 0.34 0.36 0.36 0.35 0.33 0.30 0.28 0.27 0.25 0.25 0.25
0.37 0.35 0.34 0.32 0.31 0.29 0.27 0.26 0.27 0.28 0.30 0.32 0.35 0.37 0.41 0.42 0.39 0.37 0.38 0.37 0.32 0.28 0.27 0.26 0.26 0.27 0.27 0.27 0.27 0.28 0.29 0.30 0.32 0.36 0.38 0.36 0.35 0.32 0.29 0.28 0.27 0.25 0.24
0.41 0.38 0.37 0.34 0.33 0.32 0.29 0.27 0.27 0.28 0.28 0.30 0.34 0.38 0.40 0.39 0.39 0.40 0.39 0.38 0.34 0.29 0.28 0.27 0.26 0.27 0.28 0.28 0.28 0.28 0.28 0.29 0.31 0.36 0.36 0.37 0.36 0.32 0.31 0.30 0.30 0.28 0.26
0.46 0.42 0.39 0.37 0.35 0.34 0.32 0.30 0.29 0.28 0.29 0.31 0.33 0.37 0.39 0.39 0.39 0.41 0.41 0.39 0.36 0.32 0.31 0.29 0.27 0.28 0.29 0.28 0.27 0.27 0.27 0.29 0.32 0.35 0.34 0.35 0.35 0.32 0.30 0.29 0.29 0.28 0.27
0.49 0.46 0.42 0.40 0.38 0.37 0.36 0.33 0.31 0.30 0.30 0.32 0.33 0.35 0.37 0.36 0.37 0.40 0.43 0.40 0.37 0.34 0.33 0.31 0.29 0.29 0.30 0.30 0.30 0.30 0.29 0.31 0.36 0.36 0.33 0.32 0.30 0.28 0.28 0.28 0.28 0.27 0.28
0.55 0.49 0.45 0.42 0.40 0.37 0.36 0.35 0.34 0.33 0.32 0.32 0.33 0.34 0.36 0.35 0.36 0.40 0.42 0.42 0.38 0.36 0.35 0.34 0.31 0.30 0.30 0.30 0.31 0.32 0.33 0.36 0.37 0.36 0.35 0.31 0.28 0.27 0.26 0.27 0.28 0.28 0.28
0.61 0.56 0.50 0.46 0.42 0.39 0.37 0.37 0.37 0.35 0.33 0.33 0.33 0.35 0.35 0.34 0.36 0.40 0.41 0.40 0.39 0.37 0.36 0.35 0.33 0.32 0.31 0.30 0.30 0.31 0.33 0.34 0.34 0.33 0.34 0.29 0.28 0.27 0.27 0.27 0.26 0.27 0.27
0.63 0.60 0.55 0.50 0.46 0.42 0.39 0.39 0.38 0.37 0.35 0.34 0.34 0.35 0.34 0.33 0.36 0.40 0.38 0.38 0.39 0.39 0.38 0.36 0.35 0.33 0.32 0.31 0.31 0.32 0.33 0.34 0.34 0.34 0.32 0.29 0.27 0.27 0.27 0.27 0.26 0.26 0.25